CW6391 Weather Reports


Display with metric or nautical units.
time (UTC)temp
F
wind
direction
speed
MPH
gust
MPH
rain 1hr
in
rain 24hr
in
rain mn
in
humidity
%
barometer
mb
20260901145607 77 198 1.0 8.0 0.00 0.08 0.00 38 1019.8
20260901145110 78 216 2.0 7.0 0.00 0.08 0.00 37 1019.8
20260901144610 77 216 1.0 7.0 0.00 0.08 0.00 38 1019.8
20260901144111 75 211 2.0 9.0 0.00 0.08 0.00 39 1019.8
20260901143610 75 284 2.0 10.0 0.00 0.08 0.00 39 1019.8
20260901143108 76 227 4.0 10.0 0.00 0.08 0.00 35 1019.8
20260901142607 78 262 2.0 7.0 0.00 0.08 0.00 35 1020.2
20260901142108 78 170 1.0 5.0 0.00 0.08 0.00 38 1020.2
20260901141608 77 252 2.0 6.0 0.00 0.08 0.00 40 1020.2
20260901141110 75 274 3.0 7.0 0.00 0.08 0.00 41 1020.2
20260901140607 75 223 2.0 7.0 0.00 0.08 0.00 41 1020.2
20260901140114 75 315 3.0 7.0 0.00 0.08 0.00 40 1020.2
20260901135613 76 302 3.0 7.0 0.00 0.08 0.00 40 1020.2
20260901135113 76 293 2.0 8.0 0.00 0.08 0.00 40 1020.2
20260901134610 75 263 2.0 10.0 0.00 0.08 0.00 39 1020.2
20260901134107 75 270 3.0 9.0 0.00 0.08 0.00 39 1020.2
20260901133616 75 234 3.0 8.0 0.00 0.08 0.00 40 1020.2
20260901133108 75 249 4.0 7.0 0.00 0.08 0.00 41 1020.2
20260901132617 75 265 2.0 9.0 0.00 0.08 0.00 40 1020.5
20260901132110 75 223 2.0 6.0 0.00 0.08 0.00 41 1020.5
20260901131607 74 222 3.0 6.0 0.00 0.08 0.00 42 1020.5
20260901131107 75 235 2.0 7.0 0.00 0.08 0.00 41 1020.5
20260901130607 76 233 1.0 7.0 0.00 0.08 0.00 40 1020.5
20260901130113 74 226 1.0 9.0 0.00 0.08 0.00 44 1020.5
20260901125607 73 247 3.0 9.0 0.00 0.08 0.00 44 1020.5
20260901125107 73 271 2.0 8.0 0.00 0.08 0.00 44 1020.5
20260901124607 74 224 3.0 8.0 0.00 0.08 0.00 43 1020.5
20260901124108 73 310 3.0 8.0 0.00 0.08 0.00 45 1020.5
20260901123607 73 278 3.0 9.0 0.00 0.08 0.00 45 1020.5
20260901123113 74 302 4.0 7.0 0.00 0.08 0.00 44 1020.9
20260901122607 75 212 1.0 9.0 0.00 0.08 0.00 42 1020.5
20260901122107 74 240 2.0 12.0 0.00 0.08 0.00 42 1020.5
20260901121610 75 238 3.0 8.0 0.00 0.08 0.00 39 1020.5
20260901121111 75 223 2.0 9.0 0.00 0.08 0.00 41 1020.5
20260901120608 74 256 3.0 8.0 0.00 0.08 0.00 43 1020.5
20260901120111 74 267 3.0 8.0 0.00 0.08 0.00 44 1020.5
20260901115611 74 228 2.0 6.0 0.00 0.08 0.00 45 1020.5
20260901115110 73 215 2.0 9.0 0.00 0.08 0.00 47 1020.5
20260901114611 71 279 3.0 8.0 0.00 0.08 0.00 48 1020.5
20260901114107 71 256 4.0 8.0 0.00 0.08 0.00 47 1020.5
20260901113610 71 299 3.0 6.0 0.00 0.08 0.00 48 1020.9
20260901113110 71 314 2.0 9.0 0.00 0.08 0.00 47 1020.9
20260901112607 73 281 2.0 7.0 0.00 0.08 0.00 46 1020.5
20260901112107 73 221 2.0 10.0 0.00 0.08 0.00 44 1020.5
20260901111613 72 229 1.0 11.0 0.00 0.08 0.00 46 1020.5
20260901111110 71 271 2.0 11.0 0.00 0.08 0.00 48 1020.5
20260901110610 72 235 5.0 10.0 0.00 0.08 0.00 47 1020.9
20260901110110 71 269 3.0 10.0 0.00 0.08 0.00 49 1020.9
20260901105607 70 299 2.0 10.0 0.00 0.08 0.00 48 1020.5
20260901105110 72 273 4.0 9.0 0.00 0.08 0.00 47 1020.9
20260901104607 72 246 4.0 9.0 0.00 0.08 0.00 47 1020.5
20260901104110 72 270 2.0 8.0 0.00 0.08 0.00 47 1020.5
20260901103607 73 257 3.0 7.0 0.00 0.08 0.00 46 1020.5
20260901103113 72 229 3.0 10.0 0.00 0.08 0.00 47 1020.5
20260901102607 71 280 1.0 6.0 0.00 0.08 0.00 50 1020.5
20260901102113 71 268 1.0 9.0 0.00 0.08 0.00 51 1020.5
20260901101607 70 287 2.0 10.0 0.00 0.08 0.00 50 1020.5
20260901101113 70 227 2.0 7.0 0.00 0.08 0.00 50 1020.9
20260901100613 71 295 2.0 6.0 0.00 0.08 0.00 51 1020.9
20260901100107 70 264 2.0 7.0 0.00 0.08 0.00 51 1020.9
20260901095613 70 213 2.0 7.0 0.00 0.08 0.00 53 1020.9
20260901095107 69 218 2.0 10.0 0.00 0.08 0.00 52 1020.9
20260901094607 69 235 3.0 11.0 0.00 0.08 0.00 51 1020.9
20260901094107 69 270 4.0 11.0 0.00 0.08 0.00 52 1020.9
20260901093610 69 240 3.0 10.0 0.00 0.08 0.00 53 1020.9
20260901093110 69 243 3.0 9.0 0.00 0.08 0.00 52 1020.9
20260901092607 69 235 3.0 13.0 0.00 0.08 0.00 53 1020.9
20260901092107 69 249 3.0 7.0 0.00 0.08 0.00 54 1020.9
20260901091613 69 248 2.0 7.0 0.00 0.08 0.00 56 1020.9
20260901091107 68 249 3.0 11.0 0.00 0.08 0.00 55 1020.9
20260901090613 68 274 4.0 11.0 0.00 0.08 0.00 56 1020.9
20260901090116 68 232 2.0 9.0 0.00 0.08 0.00 57 1020.9
20260901085607 67 225 2.0 11.0 0.00 0.08 0.00 57 1020.9
20260901085107 68 238 3.0 6.0 0.00 0.08 0.00 57 1020.9
20260901084616 67 255 2.0 10.0 0.00 0.08 0.00 59 1020.9
20260901084107 67 253 4.0 11.0 0.00 0.08 0.00 60 1020.9
20260901083607 67 279 2.0 9.0 0.00 0.08 0.00 61 1020.9
20260901083113 67 242 3.0 7.0 0.00 0.08 0.00 60 1020.9
20260901082607 66 212 1.0 9.0 0.00 0.08 0.00 61 1020.9
20260901082107 67 232 3.0 9.0 0.00 0.08 0.00 59 1020.9
20260901081607 67 249 1.0 7.0 0.00 0.08 0.00 59 1020.9
20260901081113 67 277 1.0 8.0 0.00 0.08 0.00 60 1020.5
20260901080607 67 234 3.0 8.0 0.00 0.08 0.00 60 1020.5
20260901080111 67 243 3.0 7.0 0.00 0.08 0.00 60 1020.5
20260901075608 67 258 2.0 5.0 0.00 0.08 0.00 63 1020.5
20260901075107 66 251 2.0 6.0 0.00 0.08 0.00 64 1020.5
20260901074610 66 248 2.0 6.0 0.00 0.08 0.00 64 1020.5
20260901074108 66 235 3.0 6.0 0.00 0.08 0.00 65 1020.5
20260901073611 66 266 1.0 4.0 0.00 0.08 0.00 66 1020.5
20260901073107 65 222 1.0 5.0 0.00 0.08 0.00 69 1020.2
20260901072608 64 276 2.0 6.0 0.00 0.08 0.00 68 1020.2
20260901072107 65 244 2.0 6.0 0.00 0.08 0.00 68 1020.2
20260901071610 65 304 1.0 5.0 0.00 0.08 0.00 68 1020.2
20260901071107 65 276 2.0 5.0 0.00 0.08 0.00 69 1020.5
20260901070607 64 244 1.0 5.0 0.00 0.08 0.00 71 1020.5
20260901070107 64 257 2.0 5.0 0.00 0.08 0.00 71 1020.2
20260901065611 64 242 1.0 5.0 0.00 0.08 0.00 73 1020.2
20260901065107 63 244 1.0 4.0 0.00 0.08 0.00 74 1020.5
20260901064613 62 226 0.0 5.0 0.00 0.08 0.00 77 1020.2
20260901064107 61 296 1.0 5.0 0.00 0.08 0.00 78 1020.2
20260901063607 61 234 1.0 5.0 0.00 0.08 0.00 78 1020.2
20260901063110 61 305 1.0 6.0 0.00 0.08 0.00 78 1020.2
20260901062610 61 251 0.0 3.0 0.00 0.08 0.00 79 1020.2
20260901062107 61 300 1.0 3.0 0.00 0.08 0.00 79 1020.2
20260901061607 61 239 1.0 3.0 0.00 0.08 0.00 80 1020.2
20260901061110 61 290 0.0 2.0 0.00 0.08 0.00 81 1020.2
20260901060607 60 247 0.0 2.0 0.00 0.08 0.00 81 1020.2
20260901060107 60 227 1.0 3.0 0.00 0.08 0.00 81 1020.2
20260901055607 60 233 0.0 2.0 0.00 0.08 0.00 82 1020.2
20260901055107 60 220 1.0 2.0 0.00 0.08 0.00 83 1020.2
20260901054610 60 346 0.0 1.0 0.00 0.08 0.00 84 1020.2
20260901054107 59 175 0.0 1.0 0.00 0.08 0.00 85 1020.2
20260901053610 59 171 0.0 3.0 0.00 0.08 0.00 85 1020.2
20260901053107 59 169 0.0 2.0 0.00 0.08 0.00 85 1020.2
20260901052610 59 175 0.0 3.0 0.00 0.08 0.00 85 1020.2
20260901052107 59 190 0.0 2.0 0.00 0.08 0.00 85 1019.8
20260901051610 58 231 0.0 1.0 0.00 0.08 0.00 86 1020.2
20260901051107 58 321 0.0 3.0 0.00 0.08 0.00 86 1020.2
20260901050607 58 331 1.0 2.0 0.00 0.08 0.00 86 1020.2
20260901050107 58 41 1.0 3.0 0.00 0.08 0.00 86 1020.2
20260901045607 58 309 1.0 3.0 0.00 0.08 0.00 86 1019.8
20260901045110 58 308 1.0 3.0 0.00 0.08 0.00 87 1019.8
20260901044616 58 278 2.0 4.0 0.00 0.08 0.00 87 1019.8
20260901044107 58 245 2.0 4.0 0.00 0.08 0.00 87 1019.8
20260901043611 58 277 1.0 3.0 0.00 0.08 0.00 87 1019.8
20260901043113 58 227 0.0 4.0 0.00 0.08 0.00 87 1019.8
20260901042607 58 181 1.0 4.0 0.00 0.08 0.00 87 1019.8
20260901042111 58 209 0.0 2.0 0.00 0.09 0.00 87 1019.8
20260901041607 58 253 0.0 2.0 0.00 0.09 0.00 87 1019.8
20260901041110 58 243 0.0 2.0 0.00 0.09 0.00 87 1019.8
20260901040610 58 248 0.0 2.0 0.00 0.09 0.00 87 1019.5
20260901040107 58 298 0.0 3.0 0.00 0.09 0.00 87 1019.5
20260901035610 58 288 1.0 3.0 0.00 0.09 0.00 87 1019.5
20260901035107 58 280 1.0 4.0 0.00 0.09 0.00 87 1019.5
20260901034613 58 310 1.0 2.0 0.00 0.11 0.00 87 1019.5
20260901034113 58 216 0.0 3.0 0.00 0.14 0.00 87 1019.5
20260901033616 58 259 0.0 3.0 0.00 0.16 0.00 87 1019.5
20260901033110 58 254 1.0 3.0 0.00 0.16 0.00 87 1019.5
20260901032608 58 252 0.0 2.0 0.00 0.23 0.00 87 1019.5
20260901032110 58 289 1.0 3.0 0.00 0.35 0.00 87 1019.5
20260901031613 58 214 1.0 4.0 0.00 0.40 0.00 87 1019.2
20260901031107 58 247 1.0 2.0 0.00 0.42 0.00 87 1019.2
20260901030607 58 269 0.0 3.0 0.00 0.43 0.00 87 1019.2
20260901030110 58 229 0.0 2.0 0.00 0.43 0.00 86 1019.2
20260901025607 59 218 0.0 3.0 0.00 0.43 0.00 87 1019.2
20260901025110 59 234 1.0 3.0 0.00 0.48 0.00 87 1019.2
20260901024607 59 240 0.0 2.0 0.00 0.50 0.00 87 1019.5
20260901024107 59 244 0.0 3.0 0.00 0.51 0.00 87 1019.2
20260901023607 59 258 1.0 4.0 0.00 0.51 0.00 87 1019.2
20260901023110 59 268 1.0 3.0 0.00 0.51 0.00 87 1019.2
20260901022613 59 271 0.0 3.0 0.00 0.51 0.00 86 1019.2
20260901022110 59 279 1.0 3.0 0.00 0.51 0.00 86 1019.2
20260901021610 59 233 1.0 3.0 0.00 0.51 0.00 87 1019.2
20260901021107 59 254 1.0 4.0 0.00 0.51 0.00 87 1019.2
20260901020611 59 287 0.0 2.0 0.00 0.51 0.00 87 1019.2
20260901020107 59 237 0.0 3.0 0.00 0.51 0.00 87 1019.2
20260901015613 59 270 0.0 1.0 0.00 0.51 0.00 87 1018.8
20260901015110 59 201 0.0 2.0 0.00 0.51 0.00 86 1018.8
20260901014607 59 233 0.0 3.0 0.00 0.51 0.00 86 1018.8
20260901014114 59 226 1.0 3.0 0.00 0.51 0.00 86 1018.8
20260901013607 59 223 0.0 3.0 0.00 0.51 0.00 86 1018.8
20260901013110 59 222 1.0 3.0 0.00 0.51 0.00 86 1018.8
20260901012607 59 263 1.0 2.0 0.00 0.51 0.00 87 1018.8
20260901012110 59 301 0.0 3.0 0.00 0.51 0.00 87 1018.8
20260901011617 59 261 1.0 3.0 0.00 0.51 0.00 87 1018.8
20260901011110 59 298 0.0 2.0 0.00 0.51 0.00 87 1018.4
20260901010613 59 287 0.0 3.0 0.00 0.51 0.00 87 1018.4
20260901010107 59 262 1.0 4.0 0.00 0.51 0.00 87 1018.4
20260901005607 59 191 1.0 3.0 0.00 0.51 0.00 86 1018.4
20260901005107 59 153 0.0 3.0 0.00 0.51 0.00 86 1018.4
20260901004610 59 233 1.0 4.0 0.00 0.51 0.00 86 1018.4
20260901004111 59 262 1.0 3.0 0.00 0.51 0.00 86 1018.4
20260901003607 59 283 0.0 3.0 0.00 0.51 0.00 86 1018.4
20260901003110 59 226 0.0 3.0 0.00 0.51 0.00 86 1018.4
20260901002607 59 267 0.0 3.0 0.00 0.51 0.00 86 1018.4
20260901002113 59 234 0.0 4.0 0.00 0.51 0.00 86 1018.4
20260901001607 59 255 1.0 4.0 0.00 0.51 0.00 86 1018.4
20260901001110 59 251 2.0 4.0 0.00 0.51 0.00 86 1018.4
20260901000607 59 239 1.0 6.0 0.00 0.51 0.00 86 1018.4
20260901000107 59 242 2.0 5.0 0.00 0.51 0.00 86 1018.4
20260831235610 59 260 1.0 3.0 0.00 0.51 0.00 86 1018.4
20260831235107 59 246 1.0 6.0 0.00 0.51 0.00 86 1018.4
20260831234608 59 237 1.0 6.0 0.00 0.51 0.00 85 1018.4
20260831234110 59 285 0.0 2.0 0.00 0.51 0.00 85 1018.4
20260831233613 59 253 1.0 3.0 0.00 0.51 0.00 85 1018.4
20260831233114 59 247 1.0 3.0 0.00 0.51 0.00 85 1018.4
20260831232607 59 256 0.0 4.0 0.00 0.51 0.00 84 1018.4
20260831232110 60 241 1.0 5.0 0.00 0.51 0.00 84 1018.4
20260831231607 60 251 2.0 5.0 0.00 0.51 0.00 84 1018.4
20260831231107 60 257 1.0 4.0 0.00 0.51 0.00 84 1018.4
20260831230613 60 268 1.0 2.0 0.00 0.51 0.00 84 1018.4
20260831230107 60 222 1.0 3.0 0.00 0.51 0.00 84 1018.4
20260831225613 60 275 1.0 3.0 0.00 0.51 0.00 84 1018.4
20260831225107 60 265 1.0 4.0 0.00 0.51 0.00 84 1018.4
20260831224614 60 297 0.0 3.0 0.00 0.51 0.00 84 1018.4
20260831224111 60 277 1.0 3.0 0.00 0.51 0.00 84 1018.4
20260831223607 60 197 1.0 6.0 0.00 0.51 0.00 84 1018.4
20260831223107 60 288 2.0 6.0 0.00 0.51 0.00 84 1018.4
20260831222610 60 305 1.0 3.0 0.00 0.51 0.00 84 1018.4
20260831222116 60 303 1.0 2.0 0.00 0.51 0.00 83 1018.4
20260831221607 60 207 1.0 2.0 0.01 0.51 0.00 83 1018.4
20260831221110 60 230 0.0 2.0 0.08 0.51 0.00 82 1018.4
20260831220613 60 128 0.0 2.0 0.08 0.51 0.00 81 1018.4
20260831220107 60 270 0.0 6.0 0.08 0.51 0.00 80 1018.1
20260831215608 60 259 3.0 6.0 0.08 0.51 0.00 79 1018.4
20260831215107 60 285 2.0 6.0 0.08 0.51 0.00 79 1018.4
20260831214613 60 292 2.0 9.0 0.08 0.51 0.00 78 1018.4
20260831214107 61 280 1.0 6.0 0.08 0.51 0.00 78 1018.4
20260831213610 61 287 3.0 6.0 0.08 0.51 0.00 77 1018.4
20260831213107 61 299 1.0 11.0 0.08 0.51 0.00 76 1018.1
20260831212607 61 272 4.0 11.0 0.08 0.51 0.00 75 1018.4
20260831212114 62 295 4.0 9.0 0.08 0.51 0.00 75 1018.4
20260831211616 63 247 1.0 7.0 0.06 0.49 0.00 75 1018.4
20260831211107 63 247 3.0 10.0 0.00 0.42 0.00 68 1018.1
20260831210607 63 249 3.0 10.0 0.00 0.42 0.00 68 1017.7
20260831210110 63 230 1.0 5.0 0.00 0.42 0.00 67 1017.7
20260831205607 63 242 1.0 6.0 0.00 0.42 0.00 67 1017.7
20260831205110 63 264 2.0 5.0 0.00 0.42 0.00 67 1017.7
20260831204610 64 219 1.0 7.0 0.00 0.42 0.00 66 1017.7
20260831204117 64 239 2.0 7.0 0.00 0.42 0.00 66 1017.4
20260831203610 64 235 1.0 6.0 0.00 0.42 0.00 65 1017.4
20260831203107 64 289 1.0 6.0 0.00 0.42 0.00 65 1017.4
20260831202613 64 236 1.0 9.0 0.00 0.42 0.00 64 1017.4
20260831202107 65 220 1.0 6.0 0.00 0.42 0.00 64 1017.4
20260831201613 65 245 2.0 8.0 0.00 0.42 0.00 63 1017.1
20260831201110 65 223 3.0 9.0 0.00 0.42 0.00 62 1017.1
20260831200607 65 226 4.0 9.0 0.00 0.42 0.00 62 1017.1
20260831200107 65 277 1.0 9.0 0.00 0.42 0.00 61 1017.1
20260831195607 65 250 2.0 13.0 0.00 0.42 0.00 61 1017.1
20260831195110 66 256 4.0 13.0 0.00 0.42 0.00 60 1017.1
20260831194607 66 258 4.0 9.0 0.00 0.42 0.00 59 1017.1
20260831194107 66 256 2.0 9.0 0.00 0.42 0.00 59 1016.7
20260831193607 66 240 3.0 12.0 0.00 0.42 0.00 58 1016.7
20260831193110 66 248 2.0 12.0 0.00 0.42 0.00 58 1016.7
20260831192607 66 257 4.0 9.0 0.00 0.42 0.00 57 1016.7
20260831192110 66 238 4.0 13.0 0.00 0.42 0.00 56 1016.7
20260831191613 66 245 5.0 13.0 0.00 0.42 0.00 55 1016.3
20260831191107 67 266 2.0 12.0 0.00 0.42 0.00 54 1016.3
20260831190607 67 242 1.0 9.0 0.00 0.42 0.00 53 1016.3
20260831190111 67 271 3.0 18.0 0.00 0.42 0.00 52 1016.3
20260831185607 67 266 4.0 18.0 0.00 0.42 0.00 51 1016.7
20260831185110 68 278 4.0 12.0 0.00 0.42 0.00 52 1016.7
20260831184608 68 265 4.0 11.0 0.00 0.42 0.00 53 1016.3
20260831184110 68 281 3.0 11.0 0.00 0.42 0.00 52 1016.3
20260831183607 69 229 2.0 11.0 0.00 0.42 0.00 51 1016.3
20260831183107 69 261 4.0 12.0 0.00 0.42 0.00 50 1016.3
20260831182610 70 254 3.0 9.0 0.00 0.42 0.00 48 1016.0
20260831182107 70 232 2.0 7.0 0.00 0.42 0.00 46 1016.0
20260831181607 70 228 3.0 10.0 0.00 0.42 0.00 45 1015.6
20260831181107 71 244 2.0 8.0 0.00 0.42 0.00 45 1015.3
20260831180610 71 268 2.0 8.0 0.00 0.42 0.00 45 1015.0
20260831180111 71 268 1.0 13.0 0.00 0.42 0.00 44 1015.0
20260831175613 71 227 3.0 9.0 0.00 0.42 0.00 44 1014.6
20260831175110 71 243 2.0 5.0 0.00 0.42 0.00 44 1014.6
20260831174610 71 229 2.0 6.0 0.00 0.42 0.00 44 1015.0
20260831174107 71 250 2.0 7.0 0.00 0.42 0.00 43 1015.0
20260831173608 71 233 3.0 9.0 0.00 0.42 0.00 43 1015.0
20260831173110 71 259 2.0 5.0 0.00 0.42 0.00 43 1015.0
20260831172610 71 232 1.0 10.0 0.00 0.42 0.00 43 1015.0
20260831172107 71 257 2.0 6.0 0.00 0.42 0.00 43 1015.0
20260831171607 72 243 2.0 7.0 0.00 0.42 0.00 42 1015.0
20260831171110 72 217 1.0 8.0 0.00 0.42 0.00 42 1015.0
20260831170607 72 260 2.0 8.0 0.00 0.42 0.00 41 1015.0
20260831170108 72 238 2.0 7.0 0.00 0.42 0.00 41 1015.0
20260831165607 72 258 2.0 7.0 0.00 0.42 0.00 40 1015.0
20260831165107 73 233 2.0 8.0 0.00 0.42 0.00 40 1015.0
20260831164607 73 250 1.0 9.0 0.00 0.42 0.00 40 1015.0
20260831164110 73 216 2.0 10.0 0.00 0.42 0.00 39 1015.0
20260831163608 73 251 4.0 10.0 0.00 0.42 0.00 38 1015.0
20260831163110 74 266 4.0 14.0 0.00 0.42 0.00 38 1015.0
20260831162610 74 231 5.0 13.0 0.00 0.42 0.00 38 1015.0
20260831162107 74 259 4.0 12.0 0.00 0.42 0.00 37 1015.0
20260831161616 74 265 2.0 12.0 0.00 0.42 0.00 38 1015.0
20260831161107 74 267 4.0 14.0 0.00 0.42 0.00 37 1015.0
20260831160613 74 269 5.0 14.0 0.00 0.42 0.00 37 1015.0
20260831160108 75 249 3.0 12.0 0.00 0.42 0.00 36 1015.0
20260831155607 74 258 4.0 14.0 0.00 0.42 0.00 36 1015.0
20260831155110 74 254 5.0 23.0 0.00 0.42 0.00 36 1015.0
20260831154611 74 235 2.0 11.0 0.00 0.42 0.00 37 1015.0
20260831154113 74 264 4.0 14.0 0.00 0.42 0.00 36 1015.0
20260831153610 74 247 3.0 15.0 0.00 0.42 0.00 36 1015.0
20260831153110 75 193 3.0 15.0 0.00 0.42 0.00 35 1015.0
20260831152607 76 242 6.0 17.0 0.00 0.42 0.00 34 1015.0
20260831152110 76 266 4.0 17.0 0.00 0.42 0.00 35 1015.0
20260831151607 76 251 3.0 17.0 0.00 0.42 0.00 37 1015.0
20260831151110 76 266 3.0 8.0 0.00 0.42 0.00 38 1015.0
20260831150607 75 261 2.0 11.0 0.00 0.42 0.00 39 1015.0
20260831150110 76 253 5.0 14.0 0.00 0.42 0.00 38 1015.0